Location: STAR School
(35.3054°N, 111.2976°W)
Time: 04:04:23
(UTC-07:00)

ISS - Visible Passes

Search period start: 21 February 2019 00:00
Search period end: 03 March 2019 00:00
Orbit: 403 x 411 km, 51.6° (Epoch: 21 February)

Date Brightness Start Highest point End Pass type
(mag) Time Alt. Az. Time Alt. Az. Time Alt. Az.
21 Feb -1.9 06:20:17 10° SSW 06:23:12 31° SE 06:26:08 10° ENE visible
22 Feb -0.9 05:29:56 10° SSE 05:31:57 15° SE 05:33:58 10° E visible
23 Feb -3.9 06:13:31 10° SW 06:16:46 82° NW 06:20:02 10° NE visible
24 Feb -2.9 05:24:45 38° SSE 05:25:23 44° SE 05:28:30 10° ENE visible
25 Feb -0.5 04:35:58 13° E 04:35:58 13° E 04:36:37 10° ENE visible
25 Feb -2.8 06:08:43 18° W 06:10:28 30° NW 06:13:23 10° NNE visible
26 Feb -3.0 05:19:44 42° NNE 05:19:44 42° NNE 05:22:09 10° NE visible
27 Feb -0.3 04:30:37 11° NE 04:30:37 11° NE 04:30:42 10° NE visible
27 Feb -1.8 06:03:20 13° NW 06:04:17 15° NNW 06:06:14 10° N visible
28 Feb -1.6 05:14:04 17° N 05:14:04 17° N 05:15:18 10° NNE visible
